Location: Most
(50.5330°N, 13.6500°E)
Time: 14:32:36
(UTC+02:00)

Tiangong - Visible Passes

Search period start: 23 October 2021 00:00
Search period end: 01 November 2021 23:00
Orbit: 381 x 390 km, 41.5° (Epoch: 23 October)

Date Brightness Start Highest point End Pass type
(mag) Time Alt. Az. Time Alt. Az. Time Alt. Az.
23 Oct 3.3 19:46:42 10° SW 19:48:48 16° S 19:49:05 16° S visible
24 Oct 3.4 18:47:34 10° SW 18:49:40 16° S 18:51:47 10° SE visible
24 Oct 4.1 20:24:17 10° SW 20:24:45 11° SW 20:24:45 11° SW visible
25 Oct 3.6 19:24:45 10° SW 19:26:41 15° S 19:28:12 12° SSE visible
26 Oct 3.6 18:25:25 10° SW 18:27:31 16° S 18:29:37 10° SE visible
27 Oct 3.8 19:02:59 10° SW 19:04:28 13° SSW 19:05:57 10° SSE visible
